Eureka, Nunavut

3:42 PM CDT on August 28, 2016 (GMT -0500)
Eureka

Weather History for CWEU - November, 2012

Change the Weather History Date:

Wednesday, November 28, 2012

  Actual Average Record
Temperature  
Mean Temperature -16 °F -  
Max Temperature -8 °F -24 °F 10 °F (2005)
Min Temperature -23 °F -37 °F -40 °F (2015)
Degree Days  
Heating Degree Days 80    
Moisture  
Dew Point -22 °F    
Average Humidity 66    
Maximum Humidity 70    
Minimum Humidity 50    
Precipitation  
Precipitation 0.00 in 0.00 in - ()
Sea Level Pressure  
Sea Level Pressure 29.88 in    
Wind  
Wind Speed 1 mph ()    
Max Wind Speed 5 mph    
Max Gust Speed -    
Visibility 15.0 miles    
Events Snow    
Averages and records for this station are not official NWS values.
T = Trace of Precipitation, MM = Missing Value Source: Averaged Metar Reports

Daily Weather History Graph

Daily Weather History Graph

Search for Another Location

Airport or City:

Trip Planner

Search our weather history database for the weather conditions in past years. The results will help you decide how hot, cold, wet, or windy it might be!

Date:

Astronomy

Dec. 31, 1969 Rise Set
Actual Time Sun does not set Sun does not set
Civil Twilight Sun does not set Sun does not set
Nautical Twilight 10:12 AM CST 12:50 PM CST
Astronomical Twilight 6:44 AM CST 4:17 PM CST
Moon No Moon Rise No Moon Set
Length of Visible Light 0h 00m
Length of Day
0h 00m
Full, 100% of the Moon is Illuminated
Nov 28
Full
Dec 6
Last Quarter
Dec 13
New
Dec 19
First Quarter
Dec 28
Full

Hourly Weather History & Observations

Time (CST) Temp. Windchill Dew Point Humidity Pressure Visibility Wind Dir Wind Speed Gust Speed Precip Events Conditions
12:00 AM -18 °F - -26 °F 52% 29.82 in 15 mi Calm Calm - - Snow Snow
12:00 AM -18.4 °F - -25.6 °F 70% 29.82 in 15.0 mi Calm Calm - N/A   Mostly Cloudy
1:00 AM -16.6 °F - -23.8 °F 70% 29.84 in 15.0 mi South 2.3 mph - N/A   Mostly Cloudy
2:00 AM -14.8 °F - -22.0 °F 70% 29.85 in 15.0 mi Calm Calm - N/A   Overcast
3:00 AM -14.8 °F - -22.0 °F 70% 29.86 in 15.0 mi Calm Calm - N/A   Mostly Cloudy
4:00 AM -14.8 °F - -23.8 °F 64% 29.87 in 15.0 mi South 2.3 mph - N/A   Partly Cloudy
5:00 AM -14.8 °F - -22.0 °F 70% 29.88 in 15.0 mi Calm Calm - N/A   Mostly Cloudy
6:00 AM -14 °F - -22 °F 50% 29.88 in 15 mi Calm Calm - - Snow Snow
6:00 AM -14.8 °F - -22.0 °F 70% 29.88 in 15.0 mi Calm Calm - N/A   Mostly Cloudy
7:00 AM -14.8 °F -27.2 °F -22.0 °F 70% 29.89 in 15.0 mi SE 4.6 mph - N/A   Scattered Clouds
8:00 AM -13.0 °F - -22.0 °F 64% 29.90 in 15.0 mi Calm Calm - N/A   Mostly Cloudy
9:00 AM -13.0 °F - -20.2 °F 70% 29.91 in 15.0 mi SSE 2.3 mph - N/A   Mostly Cloudy
10:00 AM -11.2 °F - -20.2 °F 64% 29.91 in 15.0 mi Calm Calm - N/A   Scattered Clouds
11:00 AM -14.8 °F - -22.0 °F 70% 29.92 in 15.0 mi Calm Calm - N/A   Scattered Clouds
12:00 PM -14 °F - -22 °F 53% 29.91 in 15 mi Calm Calm - -   Partly Cloudy
12:00 PM -14.8 °F - -22.0 °F 70% 29.91 in 15.0 mi Calm Calm - N/A   Mostly Cloudy
1:00 PM -14.8 °F - -22.0 °F 70% 29.91 in 15.0 mi Calm Calm - N/A   Scattered Clouds
2:00 PM -13.0 °F - -20.2 °F 70% 29.91 in 15.0 mi ESE 2.3 mph - N/A   Scattered Clouds
3:00 PM -11.2 °F - -20.2 °F 64% 29.90 in 15.0 mi ENE 2.3 mph - N/A   Partly Cloudy
4:00 PM -14.8 °F - -22.0 °F 70% 29.89 in 15.0 mi SE 2.3 mph - N/A   Partly Cloudy
5:00 PM -9.4 °F - -18.4 °F 65% 29.88 in 15.0 mi Calm Calm - N/A   Partly Cloudy
6:00 PM -16 °F - -24 °F 51% 29.88 in 15 mi SSE 2.3 mph - -   Scattered Clouds
6:00 PM -14.8 °F -24.8 °F -23.8 °F 64% 29.88 in 15.0 mi SSE 3.5 mph - N/A   Partly Cloudy
7:00 PM -14.8 °F - -22.0 °F 70% 29.86 in 15.0 mi Calm Calm - N/A   Partly Cloudy
8:00 PM -13.0 °F - -20.2 °F 70% 29.85 in 15.0 mi Calm Calm - N/A   Mostly Cloudy
9:00 PM -11.2 °F - -18.4 °F 70% 29.84 in 15.0 mi Calm Calm - N/A   Scattered Clouds